Stündliche Wetter Abu Ghosh

Heute, 17 Juni, Donnerstag

Zeit Temperatur Niederschläge Wind Luftdruck Luftfeuchtigkeit
00:00 +18°C° 0 mm 3 m/S 704 mmHg 75%
01:00 +18°C° 0 mm 3 m/S 704 mmHg 75%
02:00 +18°C° 0 mm 3 m/S 704 mmHg 75%
03:00 +18°C° 0 mm 2 m/S 704 mmHg 74%
04:00 +18°C° 0 mm 2 m/S 704 mmHg 72%
05:00 +18°C° 0 mm 2 m/S 704 mmHg 70%
06:00 +19°C° 0 mm 2 m/S 704 mmHg 65%
07:00 +20°C° 0 mm 3 m/S 704 mmHg 60%
08:00 +21°C° 0 mm 3 m/S 705 mmHg 55%
09:00 +22°C° 0 mm 3 m/S 705 mmHg 50%
10:00 +23°C° 0 mm 4 m/S 705 mmHg 45%
11:00 +26°C° 0 mm 4 m/S 705 mmHg 39%
12:00 +26°C° 0 mm 5 m/S 705 mmHg 39%
13:00 +26°C° 0 mm 6 m/S 705 mmHg 38%
14:00 +26°C° 0 mm 6 m/S 705 mmHg 37%
15:00 +26°C° 0 mm 7 m/S 705 mmHg 41%
16:00 +24°C° 0 mm 7 m/S 704 mmHg 44%
17:00 +23°C° 0 mm 7 m/S 704 mmHg 47%
18:00 +22°C° 0 mm 6 m/S 704 mmHg 55%
19:00 +21°C° 0 mm 5 m/S 704 mmHg 62%
20:00 +20°C° 0 mm 3 m/S 704 mmHg 70%
21:00 +19°C° 0 mm 3 m/S 704 mmHg 72%
22:00 +19°C° 0 mm 2 m/S 704 mmHg 75%
23:00 +18°C° 0 mm 2 m/S 704 mmHg 77%

Morgen, 18 Juni, Freitag

Zeit Temperatur Niederschläge Wind Luftdruck Luftfeuchtigkeit
00:00 +18°C° 0 mm 2 m/S 704 mmHg 79%
01:00 +19°C° 0 mm 1 m/S 704 mmHg 80%
02:00 +19°C° 0 mm 1 m/S 703 mmHg 81%
03:00 +19°C° 0 mm 1 m/S 703 mmHg 81%
04:00 +19°C° 0 mm 1 m/S 703 mmHg 80%
05:00 +19°C° 0 mm 1 m/S 703 mmHg 79%
06:00 +19°C° 0 mm 2 m/S 703 mmHg 73%
07:00 +20°C° 0 mm 2 m/S 704 mmHg 67%
08:00 +21°C° 0 mm 2 m/S 704 mmHg 62%
09:00 +24°C° 0 mm 3 m/S 704 mmHg 55%
10:00 +25°C° 0 mm 4 m/S 704 mmHg 49%
11:00 +27°C° 0 mm 4 m/S 704 mmHg 43%
12:00 +27°C° 0 mm 5 m/S 703 mmHg 43%
13:00 +27°C° 0 mm 5 m/S 703 mmHg 42%
14:00 +27°C° 0 mm 6 m/S 703 mmHg 42%
15:00 +27°C° 0 mm 6 m/S 703 mmHg 45%
16:00 +26°C° 0 mm 6 m/S 702 mmHg 49%
17:00 +24°C° 0 mm 6 m/S 702 mmHg 53%
18:00 +23°C° 0 mm 5 m/S 702 mmHg 59%
19:00 +21°C° 0 mm 4 m/S 702 mmHg 65%
20:00 +20°C° 0 mm 2 m/S 702 mmHg 71%
21:00 +20°C° 0 mm 2 m/S 702 mmHg 74%
22:00 +19°C° 0 mm 2 m/S 702 mmHg 77%
23:00 +20°C° 0 mm 1 m/S 702 mmHg 81%

übermorgen, 19 Juni, Samstag

Zeit Temperatur Niederschläge Wind Luftdruck Luftfeuchtigkeit
00:00 +20°C° 0 mm 1 m/S 702 mmHg 82%
01:00 +19°C° 0 mm 1 m/S 702 mmHg 84%
02:00 +19°C° 0 mm 1 m/S 701 mmHg 86%
03:00 +19°C° 0 mm 1 m/S 702 mmHg 85%
04:00 +19°C° 0 mm 1 m/S 702 mmHg 83%
05:00 +19°C° 0 mm 1 m/S 702 mmHg 82%
06:00 +20°C° 0 mm 1 m/S 702 mmHg 74%
07:00 +21°C° 0 mm 1 m/S 702 mmHg 66%
08:00 +23°C° 0 mm 1 m/S 702 mmHg 58%
09:00 +24°C° 0 mm 2 m/S 702 mmHg 53%
10:00 +26°C° 0 mm 3 m/S 702 mmHg 47%
11:00 +27°C° 0 mm 3 m/S 702 mmHg 42%
12:00 +28°C° 0 mm 4 m/S 702 mmHg 41%
13:00 +28°C° 0 mm 5 m/S 702 mmHg 40%
14:00 +29°C° 0 mm 6 m/S 702 mmHg 39%
15:00 +28°C° 0 mm 6 m/S 702 mmHg 42%
16:00 +27°C° 0 mm 6 m/S 702 mmHg 45%
17:00 +26°C° 0 mm 7 m/S 702 mmHg 49%
18:00 +23°C° 0 mm 5 m/S 702 mmHg 54%
19:00 +22°C° 0 mm 4 m/S 702 mmHg 60%
20:00 +21°C° 0 mm 3 m/S 702 mmHg 65%
21:00 +21°C° 0 mm 2 m/S 702 mmHg 67%
22:00 +20°C° 0 mm 2 m/S 702 mmHg 69%
23:00 +21°C° 0 mm 1 m/S 702 mmHg 71%

20 Juni, Sonntag

Zeit Temperatur Niederschläge Wind Luftdruck Luftfeuchtigkeit
00:00 +20°C° 0 mm 1 m/S 702 mmHg 72%
01:00 +20°C° 0 mm 1 m/S 701 mmHg 73%
02:00 +19°C° 0 mm 1 m/S 701 mmHg 73%
03:00 +19°C° 0 mm 1 m/S 701 mmHg 72%
04:00 +19°C° 0 mm 1 m/S 701 mmHg 70%
05:00 +19°C° 0 mm 1 m/S 702 mmHg 68%
06:00 +20°C° 0 mm 1 m/S 702 mmHg 58%
07:00 +22°C° 0 mm 1 m/S 702 mmHg 48%
08:00 +24°C° 0 mm 1 m/S 702 mmHg 38%
09:00 +25°C° 0 mm 1 m/S 703 mmHg 34%
10:00 +27°C° 0 mm 2 m/S 703 mmHg 31%
11:00 +28°C° 0 mm 3 m/S 703 mmHg 27%
12:00 +29°C° 0 mm 3 m/S 703 mmHg 27%
13:00 +29°C° 0 mm 4 m/S 703 mmHg 26%
14:00 +30°C° 0 mm 5 m/S 702 mmHg 25%
15:00 +29°C° 0 mm 5 m/S 702 mmHg 28%
16:00 +28°C° 0 mm 6 m/S 702 mmHg 31%
17:00 +27°C° 0 mm 6 m/S 702 mmHg 34%
18:00 +25°C° 0 mm 5 m/S 702 mmHg 43%
19:00 +23°C° 0 mm 4 m/S 702 mmHg 52%
20:00 +21°C° 0 mm 3 m/S 702 mmHg 61%
21:00 +21°C° 0 mm 2 m/S 702 mmHg 63%
22:00 +20°C° 0 mm 2 m/S 702 mmHg 65%
23:00 +20°C° 0 mm 2 m/S 702 mmHg 67%

21 Juni, Montag

Zeit Temperatur Niederschläge Wind Luftdruck Luftfeuchtigkeit
00:00 +19°C° 0 mm 2 m/S 702 mmHg 68%
01:00 +19°C° 0 mm 2 m/S 701 mmHg 70%
02:00 +19°C° 0 mm 2 m/S 701 mmHg 71%
03:00 +20°C° 0 mm 1 m/S 701 mmHg 72%
04:00 +19°C° 0 mm 1 m/S 701 mmHg 73%
05:00 +19°C° 0 mm 1 m/S 701 mmHg 74%
06:00 +21°C° 0 mm 1 m/S 702 mmHg 65%
07:00 +23°C° 0 mm 1 m/S 702 mmHg 56%
08:00 +24°C° 0 mm 1 m/S 703 mmHg 47%
09:00 +26°C° 0 mm 2 m/S 703 mmHg 42%
10:00 +28°C° 0 mm 2 m/S 703 mmHg 37%
11:00 +29°C° 0 mm 3 m/S 703 mmHg 32%
12:00 +29°C° 0 mm 4 m/S 703 mmHg 34%
13:00 +29°C° 0 mm 5 m/S 702 mmHg 36%
14:00 +30°C° 0 mm 6 m/S 702 mmHg 37%
15:00 +29°C° 0 mm 6 m/S 702 mmHg 41%
16:00 +27°C° 0 mm 7 m/S 702 mmHg 45%
17:00 +26°C° 0 mm 7 m/S 702 mmHg 49%
18:00 +25°C° 0 mm 5 m/S 702 mmHg 56%
19:00 +23°C° 0 mm 4 m/S 702 mmHg 62%
20:00 +22°C° 0 mm 3 m/S 702 mmHg 69%
21:00 +21°C° 0 mm 2 m/S 702 mmHg 71%
22:00 +21°C° 0 mm 2 m/S 702 mmHg 74%
23:00 +21°C° 0 mm 1 m/S 702 mmHg 76%

22 Juni, Dienstag

Zeit Temperatur Niederschläge Wind Luftdruck Luftfeuchtigkeit
00:00 +21°C° 0 mm 1 m/S 702 mmHg 76%
01:00 +21°C° 0 mm 1 m/S 702 mmHg 77%
02:00 +20°C° 0 mm 1 m/S 701 mmHg 77%
03:00 +20°C° 0 mm 1 m/S 702 mmHg 77%
04:00 +20°C° 0 mm 1 m/S 702 mmHg 77%
05:00 +20°C° 0 mm 1 m/S 702 mmHg 78%
06:00 +21°C° 0 mm 1 m/S 702 mmHg 70%
07:00 +23°C° 0 mm 1 m/S 702 mmHg 61%
08:00 +24°C° 0 mm 1 m/S 703 mmHg 53%
09:00 +26°C° 0 mm 2 m/S 703 mmHg 49%
10:00 +27°C° 0 mm 2 m/S 703 mmHg 44%
11:00 +29°C° 0 mm 3 m/S 703 mmHg 39%
12:00 +29°C° 0 mm 4 m/S 703 mmHg 39%
13:00 +29°C° 0 mm 5 m/S 703 mmHg 39%
14:00 +30°C° 0 mm 6 m/S 703 mmHg 38%
15:00 +29°C° 0 mm 6 m/S 702 mmHg 41%
16:00 +28°C° 0 mm 6 m/S 702 mmHg 44%
17:00 +27°C° 0 mm 6 m/S 702 mmHg 47%
18:00 +26°C° 0 mm 5 m/S 702 mmHg 54%
19:00 +23°C° 0 mm 4 m/S 702 mmHg 60%
20:00 +22°C° 0 mm 3 m/S 702 mmHg 67%
21:00 +23°C° 0 mm 2 m/S 702 mmHg 70%
22:00 +21°C° 0 mm 2 m/S 702 mmHg 73%
23:00 +22°C° 0 mm 1 m/S 702 mmHg 75%
Mehr zeigen

Wir brauchen deine Erlaubnis

Meteoprog und unser Service Anbieter werden persönliche Daten aufbewahren, so wie Cookies, Geräte Bezeichnung oder ähnliche Technologien von deinem Gerät und Prozess, so wie Persönliche Daten Inhalte und Werbungen, genauso wie social Media und den Verkehr zu analysieren.

  • Aufbewahrung und/oder Zugang zu deiner Geräte Informationen.

    Cookies, Geräte Bezeichnung oder andere Informationen, können aufbewahrt oder Zugang zu deinem Gerät erhalten, für den Grund, der oben angegeben wird.

  • Personalisierte Werbung und Inhalte, Messungen, Einblick in das Publikum und Produkt Entwicklung.

    Werbungen und Inhalte können personalisiert werden, basierend auf ein Profil. Mehr Daten können besser personalisierte Werbungen und Inhalte hinzufügen. Werbung und Inhalte können gezeigt und gemessen werden. Einblicke über das Publikum, welche die Werbung gesehen haben und den Inhalt, können abgeleitet werden. So wie Daten können genutzt werden, um es zu verbessern oder die Benutzer Erfahrung zu verbessern das System und die Software.

Wenn du “Ich stimme zu” klickst, erlaubst du uns, die Cookies zu benutzen die Geräte Bezeichnung, den Web oder ähnliche Technologien zu benutzen. Deine Settings, können in deinem Gerät bei deinem Browser geändert werden.

Für den bestimmten Zweck, berechtigten Interessen beruhen darauf, mehr als auf den Inhalt. Du kannst mehr darüber in unseren Privaten und Cookie Politik lesen.